Almere Haven Meer informatie Almere Haven


Onweer radar Meer informatie blitzortung!


Regen radar Meer informatie rain snow radar


Apparatuur in gebruik:

Davis VP2

Meteohub

ALIX 1D

Web-Oke


Het weer levert geen direct gevaar op.    Er zijn geen waarschuwingen afgegeven.

Select another period ( hide this area )

Eenheden Periode Custom range Directly to
Metrisch Engels Beide
Dagelijkse Wekelijkse Maandelijkse Jaarlijkse
use both date-selectors for a custom range
previous Dag
With this date

WeatherUnderground graphs for this period ( click here )


Dagelijkse Samenvatting Maandag Feb 17 2020
Tijd Temp. ( °C ) Dew pt. ( °C ) Wind ( km/h ) van Windvlaag ( km/h ) Luchtdruk ( hPa ) Humid.( % ) Rainrate ( cm ) Zonneschijn ( W/m2 )
Hoog9,7 5,7 45,1 ZW ( 1220/3944 ) 62,8 1010,0 85 3,30 432
Gemiddeld8,1 3,4 21,4 ZW #54/184 44,6 1007,7 72 2,80 173 #89/184
Laag5,4 1,4 8,0   30,6 1002,6 64 -  
Dagelijkse Tabular details for Maandag Feb 17 2020
Tijd Temp. ( °C ) Dew pt. ( °C ) Wind ( km/h ) van Windvlaag ( km/h ) Luchtdruk ( hPa ) Humid.( % ) Rainrate ( cm ) Zonneschijn ( W/m2 )
00:00 9,7 5,7 35,4 ZW 45,1 1002,6 76 - -
00:05 9,7 5,5 33,8 Westen 49,9 1002,6 75 - -
00:10 9,6 5,4 30,6 Westen 51,5 1002,9 75 - -
00:15 9,6 5,0 16,1 Westen 62,8 1002,9 73 - -
00:20 9,7 4,7 12,9 ZZW 62,8 1002,9 71 - -
00:25 9,6 4,8 19,3 WZW 62,8 1002,9 72 - -
00:30 9,6 4,4 17,7 NW 59,5 1003,3 70 - -
00:35 9,5 4,1 19,3 ZW 59,5 1003,3 69 0,30 -
00:40 9,4 4,2 27,4 Westen 56,3 1003,3 70 0,30 -
00:45 9,3 4,1 17,7 ZZW 56,3 1003,6 70 0,30 -
00:50 9,3 4,1 27,4 ZW 54,7 1003,6 70 0,30 -
00:55 9,2 4,0 24,1 WNW 54,7 1003,6 70 0,30 -
01:00 9,1 3,9 24,1 ZW 53,1 1003,6 70 0,30 -
01:05 9,1 3,9 29,0 WZW 51,5 1003,6 70 0,30 -
01:10 9,0 3,8 25,7 WZW 56,3 1003,6 70 0,30 -
01:15 9,0 3,6 16,1 WZW 56,3 1003,6 69 0,30 -
01:20 8,9 3,5 29,0 ZW 56,3 1003,9 69 0,30 -
01:25 8,9 3,5 12,9 ZW 57,9 1003,9 69 0,30 -
01:30 8,9 3,7 24,1 ZZW 57,9 1003,9 70 - -
01:35 8,8 3,6 25,7 ZW 57,9 1003,9 70 - -
01:40 8,8 3,6 16,1 Westen 41,8 1003,9 70 - -
01:45 8,8 3,4 24,1 ZW 41,8 1003,9 69 - -
01:50 8,9 3,3 30,6 WZW 41,8 1003,9 68 - -
01:55 8,9 3,3 16,1 Westen 45,1 1004,6 68 - -
02:00 8,9 3,3 33,8 WZW 49,9 1004,6 68 - -
02:05 8,9 3,5 14,5 ZW 49,9 1005,0 69 - -
02:10 8,8 3,6 35,4 ZZW 49,9 1005,0 70 - -
02:15 8,6 2,8 30,6 Westen 54,7 1004,6 67 - -
02:20 8,5 2,7 24,1 WZW 54,7 1005,0 67 - -
02:25 8,4 2,8 45,1 ZW 54,7 1005,0 68 - -
02:30 8,3 2,5 30,6 ZW 53,1 1005,3 67 - -
02:35 8,2 2,4 25,7 Zuiden 53,1 1005,3 67 - -
02:40 8,1 2,5 27,4 Zuiden 51,5 1005,6 68 - -
02:45 8,1 2,8 22,5 Westen 49,9 1005,6 69 - -
02:50 8,0 2,9 16,1 ZW 49,9 1005,6 70 - -
02:55 7,9 2,8 37,0 Westen 49,9 1005,6 70 - -
03:00 7,9 3,0 30,6 WZW 41,8 1006,0 71 - -
03:05 7,8 3,1 40,2 WZW 43,4 1006,0 72 - -
03:10 7,8 3,1 12,9 ZW 45,1 1006,3 72 - -
03:15 7,7 3,0 24,1 ZW 46,7 1006,7 72 - -
03:20 7,8 3,1 22,5 WZW 46,7 1006,7 72 - -
03:25 7,8 3,1 19,3 ZW 48,3 1006,7 72 - -
03:30 7,8 2,9 24,1 WZW 48,3 1006,7 71 - -
03:35 7,8 2,7 30,6 ZW 46,7 1006,7 70 - -
03:40 7,9 2,8 24,1 ZW 48,3 1006,7 70 - -
03:45 7,9 2,6 24,1 Westen 48,3 1006,7 69 - -
03:50 7,9 2,6 24,1 Westen 51,5 1006,7 69 - -
03:55 7,9 2,6 30,6 ZW 51,5 1007,0 69 - -
04:00 8,0 2,7 20,9 NW 51,5 1007,3 69 - -
04:05 7,9 2,6 12,9 Westen 46,7 1007,3 69 - -
04:10 7,9 2,4 12,9 ZZW 46,7 1007,7 68 - -
04:15 7,9 2,2 17,7 WZW 41,8 1007,7 67 - -
04:20 7,9 1,9 20,9 WZW 49,9 1007,7 66 - -
04:25 7,9 1,9 22,5 WZW 49,9 1007,7 66 - -
04:30 7,9 1,9 24,1 ZW 49,9 1007,7 66 - -
04:35 7,8 1,6 22,5 ZW 48,3 1007,7 65 - -
04:40 7,9 1,7 20,9 ZZW 48,3 1007,7 65 - -
04:45 7,8 1,4 27,4 ZW 53,1 1007,7 64 - -
04:50 7,9 1,5 14,5 ZZW 53,1 1008,0 64 - -
04:55 7,8 1,6 16,1 WNW 49,9 1008,0 65 - -
05:00 7,7 1,7 19,3 Westen 41,8 1008,0 66 - -
05:05 7,6 1,9 25,7 Westen 38,6 1008,0 67 - -
05:10 7,6 1,9 20,9 ZW 35,4 1008,0 67 - -
05:15 7,6 1,9 14,5 Westen 43,4 1008,0 67 - -
05:20 7,6 1,9 29,0 ZZW 43,4 1008,0 67 - -
05:25 7,5 1,8 14,5 ZW 43,4 1008,0 67 - -
05:30 7,4 1,7 27,4 ZW 37,0 1008,4 67 - -
05:35 7,5 1,8 20,9 Westen 37,0 1008,4 67 - -
05:40 7,5 1,8 16,1 WZW 37,0 1008,4 67 - -
05:45 7,5 1,8 16,1 ZZW 43,4 1008,4 67 - -
05:50 7,5 1,8 22,5 ZZW 43,4 1008,4 67 - -
05:55 7,5 1,8 12,9 ZW 43,4 1008,4 67 - -
06:00 7,5 2,0 17,7 WZW 37,0 1008,4 68 - -
06:05 7,5 2,0 14,5 ZW 35,4 1008,4 68 - -
06:10 7,5 2,0 12,9 ZZW 35,4 1008,4 68 - -
06:15 7,4 1,9 14,5 Westen 35,4 1008,4 68 - -
06:20 7,4 2,1 16,1 ZW 35,4 1008,4 69 - -
06:25 7,4 2,1 11,3 ZZW 32,2 1008,4 69 - -
06:30 7,3 2,0 14,5 ZZW 33,8 1008,4 69 - -
06:35 7,3 2,2 24,1 ZW 35,4 1008,4 70 - -
06:40 7,3 2,2 9,7 ZZW 35,4 1008,4 70 - -
06:45 7,3 2,2 24,1 ZW 30,6 1008,4 70 - -
06:50 7,3 2,6 20,9 Westen 30,6 1008,7 72 - -
06:55 7,2 2,7 8,0 ZZW 32,2 1008,7 73 - -
07:00 7,1 2,8 14,5 Zuiden 32,2 1008,4 74 - -
07:05 6,9 2,6 14,5 Zuiden 32,2 1008,4 74 - -
07:10 6,8 2,7 12,9 WZW 30,6 1008,4 75 - -
07:15 6,8 2,7 24,1 ZZW 33,8 1008,4 75 - -
07:20 6,8 2,7 27,4 WNW 33,8 1008,4 75 - -
07:25 6,8 2,7 17,7 Zuiden 37,0 1008,4 75 - -
07:30 6,8 2,7 9,7 ZZW 37,0 1008,7 75 - -
07:35 6,8 2,7 19,3 ZZW 37,0 1008,4 75 - -
07:40 6,8 2,9 16,1 ZW 37,0 1008,7 76 - -
07:45 6,8 2,9 16,1 ZZW 37,0 1008,4 76 - -
07:50 6,9 3,1 20,9 ZW 43,4 1008,4 77 - -
07:55 6,9 3,1 25,7 ZW 43,4 1008,4 77 - 5
08:00 6,9 3,3 16,1 Zuiden 38,6 1008,4 78 - 7
08:05 6,9 3,3 35,4 ZW 41,8 1008,7 78 - 9
08:10 7,0 3,4 9,7 WZW 41,8 1008,7 78 - 11
08:15 7,1 3,5 16,1 WZW 41,8 1008,7 78 - 12
08:20 7,1 3,5 24,1 ZZW 37,0 1008,7 78 - 12
08:25 7,1 3,5 17,7 WZW 38,6 1008,7 78 - 16
08:30 7,1 3,5 16,1 Zuiden 38,6 1008,7 78 - 28
08:35 7,1 3,5 22,5 ZW 38,6 1009,0 78 - 35
08:40 7,2 3,4 14,5 WZW 45,1 1009,0 77 - 40
08:45 7,2 3,4 12,9 WZW 45,1 1009,0 77 - 46
08:50 7,3 3,5 16,1 ZW 45,1 1008,7 77 - 51
08:55 7,3 3,5 12,9 Zuiden 40,2 1009,0 77 - 53
09:00 7,3 3,5 22,5 ZZW 40,2 1009,0 77 - 58
09:05 7,4 3,6 24,1 ZZW 43,4 1009,0 77 - 72
09:10 7,4 3,6 32,2 Zuiden 43,4 1008,7 77 - 97
09:15 7,6 3,8 35,4 ZW 40,2 1008,7 77 - 105
09:20 7,7 3,7 16,1 OZO 43,4 1009,0 76 - 144
09:25 7,8 3,8 20,9 ZW 43,4 1009,0 76 - 156
09:30 7,9 3,9 24,1 WZW 43,4 1009,0 76 - 148
09:35 7,9 3,7 22,5 WZW 43,4 1009,4 75 - 104
09:40 8,0 3,8 22,5 ZZW 43,4 1009,0 75 - 176
09:45 8,1 3,9 19,3 ZZW 49,9 1009,0 75 - 223
09:50 8,3 4,1 16,1 ZW 49,9 1009,0 75 - 285
09:55 8,4 4,0 19,3 WNW 49,9 1009,0 74 - 318
10:00 8,5 3,9 16,1 WZW 41,8 1009,0 73 - 181
10:05 8,4 3,8 12,9 ZW 49,9 1009,0 73 - 151
10:10 8,4 4,0 16,1 WZW 49,9 1009,0 74 - 46
10:15 8,3 3,9 22,5 ZZW 49,9 1009,4 74 - 107
10:20 8,3 3,9 19,3 ZW 43,4 1009,4 74 - 134
10:25 8,4 4,0 25,7 ZZW 41,8 1009,4 74 - 158
10:30 8,5 4,1 20,9 ZW 41,8 1009,4 74 - 123
10:35 8,5 3,9 24,1 Westen 40,2 1009,4 73 - 125
10:40 8,5 3,9 29,0 Zuiden 40,2 1009,4 73 - 137
10:45 8,6 4,0 20,9 ZZW 40,2 1009,4 73 - 241
10:50 8,8 4,2 16,1 ZW 40,2 1009,4 73 - 237
10:55 8,9 4,1 17,7 ZW 40,2 1009,4 72 - 197
11:00 9,1 4,3 19,3 WNW 43,4 1009,4 72 - 227
11:05 9,2 4,4 29,0 ZW 43,4 1009,4 72 - 271
11:10 9,2 4,2 20,9 ZZW 43,4 1009,4 71 - 230
11:15 9,4 4,2 33,8 ZW 43,4 1009,4 70 - 292
11:20 9,6 4,4 33,8 ZZW 41,8 1009,0 70 - 362
11:25 9,6 4,2 30,6 ZZW 41,8 1009,4 69 - 185
11:30 9,4 4,0 20,9 ZZW 40,2 1009,0 69 - 207
11:35 9,4 4,2 24,1 Zuiden 40,2 1009,0 70 - 216
11:40 9,4 4,2 20,9 ZZW 40,2 1009,0 70 - 364
11:45 9,6 4,4 24,1 Westen 53,1 1009,0 70 - 432
11:50 9,5 4,3 14,5 WZW 53,1 1009,4 70 - 376
11:55 9,6 4,2 24,1 ZW 53,1 1009,4 69 - 214
12:00 9,6 4,2 22,5 ZZW 41,8 1009,4 69 - 213
12:05 9,4 4,0 16,1 WZW 48,3 1009,4 69 - 223
12:10 9,6 4,4 12,9 WNW 48,3 1009,4 70 - 176
12:15 9,5 4,3 19,3 WZW 45,1 1009,4 70 - 123
12:20 9,5 4,3 14,5 Zuiden 45,1 1009,4 70 - 200
12:25 9,6 4,4 22,5 Westen 38,6 1009,4 70 - 130
12:30 9,6 4,4 14,5 ZZW 38,6 1009,0 70 - 169
12:35 9,6 4,6 9,7 NO 45,1 1009,0 71 - 167
12:40 9,6 4,4 27,4 WZW 45,1 1009,0 70 - 146
12:45 9,6 4,4 16,1 Westen 40,2 1009,0 70 - 165
12:50 9,6 4,6 29,0 Westen 41,8 1009,7 71 - 44
12:55 7,2 2,9 27,4 Westen 41,8 1010,0 74 - 18
13:00 5,8 2,8 22,5 WZW 53,1 1010,0 81 0,30 46
13:05 5,6 2,9 12,9 WZW 53,1 1010,0 83 1,30 51
13:10 5,5 3,0 27,4 Westen 51,5 1010,0 84 1,50 14
13:15 5,4 3,1 22,5 ZW 54,7 1009,7 85 2,00 30
13:20 5,5 3,2 22,5 WZW 54,7 1009,4 85 2,80 54
13:25 5,9 3,2 19,3 ZW 54,7 1009,4 83 2,80 44
13:30 6,2 3,0 29,0 WZW 51,5 1009,0 80 3,00 128
13:35 6,5 3,5 29,0 ZW 51,5 1009,0 81 3,30 313
13:40 6,7 3,7 24,1 WZW 51,5 1009,0 81 3,30 213
13:45 6,9 3,9 16,1 ZW 45,1 1009,0 81 3,30 364
13:50 7,2 4,0 27,4 WZW 43,4 1009,0 80 3,30 190
13:55 7,3 4,1 12,9 WZW 35,4 1009,0 80 3,30 171
14:00 7,3 3,9 11,3 ZZW 35,4 1009,0 79 2,30 162
14:05 7,4 3,8 19,3 ZZW 35,4 1009,0 78 2,00 197
14:10 7,6 4,0 11,3 ZZW 37,0 1009,0 78 1,50 176
14:15 7,7 3,9 19,3 ZZW 40,2 1009,0 77 1,00 230
14:20 7,9 4,1 9,7 ZW 40,2 1009,0 77 0,50 279
14:25 8,2 4,0 20,9 ZW 35,4 1009,0 75 0,30 311
14:30 8,4 4,0 17,7 ZZW 38,6 1009,0 74 - 213
14:35 8,6 4,2 27,4 WZW 38,6 1009,0 74 - 396
14:40 8,8 4,4 27,4 ZZW 38,6 1009,0 74 - 367
14:45 8,8 4,2 27,4 ZW 35,4 1009,0 73 - 359
14:50 8,9 4,3 17,7 ZW 35,4 1009,0 73 - 350
14:55 8,9 4,3 27,4 Westen 37,0 1009,0 73 - 350
15:00 9,0 4,4 22,5 ZZW 40,2 1009,4 73 - 355
15:05 9,1 4,5 19,3 Westen 40,2 1009,4 73 - 204
15:10 9,2 4,4 24,1 Westen 40,2 1009,0 72 - 301
15:15 9,3 4,5 32,2 WZW 40,2 1009,0 72 - 315
Dagelijkse Samenvatting Maandag Feb 17 2020
Tijd Temp. ( °C ) Dew pt. ( °C ) Wind ( km/h ) van Windvlaag ( km/h ) Luchtdruk ( hPa ) Humid.( % ) Rainrate ( cm ) Zonneschijn ( W/m2 )
Hoog9,7 5,7 45,1 ZW ( 1220/3944 ) 62,8 1010,0 85 3,30 432
Gemiddeld8,1 3,4 21,4 ZW #54/184 44,6 1007,7 72 2,80 173 #89/184
Laag5,4 1,4 8,0   30,6 1002,6 64 -  
Dagelijkse Tabular details for Maandag Feb 17 2020
Tijd Temp. ( °C ) Dew pt. ( °C ) Wind ( km/h ) van Windvlaag ( km/h ) Luchtdruk ( hPa ) Humid.( % ) Rainrate ( cm ) Zonneschijn ( W/m2 )
00:00 9,7 5,7 35,4 ZW 45,1 1002,6 76 - -
00:05 9,7 5,5 33,8 Westen 49,9 1002,6 75 - -
00:10 9,6 5,4 30,6 Westen 51,5 1002,9 75 - -
00:15 9,6 5,0 16,1 Westen 62,8 1002,9 73 - -
00:20 9,7 4,7 12,9 ZZW 62,8 1002,9 71 - -
00:25 9,6 4,8 19,3 WZW 62,8 1002,9 72 - -
00:30 9,6 4,4 17,7 NW 59,5 1003,3 70 - -
00:35 9,5 4,1 19,3 ZW 59,5 1003,3 69 0,30 -
00:40 9,4 4,2 27,4 Westen 56,3 1003,3 70 0,30 -
00:45 9,3 4,1 17,7 ZZW 56,3 1003,6 70 0,30 -
00:50 9,3 4,1 27,4 ZW 54,7 1003,6 70 0,30 -
00:55 9,2 4,0 24,1 WNW 54,7 1003,6 70 0,30 -
01:00 9,1 3,9 24,1 ZW 53,1 1003,6 70 0,30 -
01:05 9,1 3,9 29,0 WZW 51,5 1003,6 70 0,30 -
01:10 9,0 3,8 25,7 WZW 56,3 1003,6 70 0,30 -
01:15 9,0 3,6 16,1 WZW 56,3 1003,6 69 0,30 -
01:20 8,9 3,5 29,0 ZW 56,3 1003,9 69 0,30 -
01:25 8,9 3,5 12,9 ZW 57,9 1003,9 69 0,30 -
01:30 8,9 3,7 24,1 ZZW 57,9 1003,9 70 - -
01:35 8,8 3,6 25,7 ZW 57,9 1003,9 70 - -
01:40 8,8 3,6 16,1 Westen 41,8 1003,9 70 - -
01:45 8,8 3,4 24,1 ZW 41,8 1003,9 69 - -
01:50 8,9 3,3 30,6 WZW 41,8 1003,9 68 - -
01:55 8,9 3,3 16,1 Westen 45,1 1004,6 68 - -
02:00 8,9 3,3 33,8 WZW 49,9 1004,6 68 - -
02:05 8,9 3,5 14,5 ZW 49,9 1005,0 69 - -
02:10 8,8 3,6 35,4 ZZW 49,9 1005,0 70 - -
02:15 8,6 2,8 30,6 Westen 54,7 1004,6 67 - -
02:20 8,5 2,7 24,1 WZW 54,7 1005,0 67 - -
02:25 8,4 2,8 45,1 ZW 54,7 1005,0 68 - -
02:30 8,3 2,5 30,6 ZW 53,1 1005,3 67 - -
02:35 8,2 2,4 25,7 Zuiden 53,1 1005,3 67 - -
02:40 8,1 2,5 27,4 Zuiden 51,5 1005,6 68 - -
02:45 8,1 2,8 22,5 Westen 49,9 1005,6 69 - -
02:50 8,0 2,9 16,1 ZW 49,9 1005,6 70 - -
02:55 7,9 2,8 37,0 Westen 49,9 1005,6 70 - -
03:00 7,9 3,0 30,6 WZW 41,8 1006,0 71 - -
03:05 7,8 3,1 40,2 WZW 43,4 1006,0 72 - -
03:10 7,8 3,1 12,9 ZW 45,1 1006,3 72 - -
03:15 7,7 3,0 24,1 ZW 46,7 1006,7 72 - -
03:20 7,8 3,1 22,5 WZW 46,7 1006,7 72 - -
03:25 7,8 3,1 19,3 ZW 48,3 1006,7 72 - -
03:30 7,8 2,9 24,1 WZW 48,3 1006,7 71 - -
03:35 7,8 2,7 30,6 ZW 46,7 1006,7 70 - -
03:40 7,9 2,8 24,1 ZW 48,3 1006,7 70 - -
03:45 7,9 2,6 24,1 Westen 48,3 1006,7 69 - -
03:50 7,9 2,6 24,1 Westen 51,5 1006,7 69 - -
03:55 7,9 2,6 30,6 ZW 51,5 1007,0 69 - -
04:00 8,0 2,7 20,9 NW 51,5 1007,3 69 - -
04:05 7,9 2,6 12,9 Westen 46,7 1007,3 69 - -
04:10 7,9 2,4 12,9 ZZW 46,7 1007,7 68 - -
04:15 7,9 2,2 17,7 WZW 41,8 1007,7 67 - -
04:20 7,9 1,9 20,9 WZW 49,9 1007,7 66 - -
04:25 7,9 1,9 22,5 WZW 49,9 1007,7 66 - -
04:30 7,9 1,9 24,1 ZW 49,9 1007,7 66 - -
04:35 7,8 1,6 22,5 ZW 48,3 1007,7 65 - -
04:40 7,9 1,7 20,9 ZZW 48,3 1007,7 65 - -
04:45 7,8 1,4 27,4 ZW 53,1 1007,7 64 - -
04:50 7,9 1,5 14,5 ZZW 53,1 1008,0 64 - -
04:55 7,8 1,6 16,1 WNW 49,9 1008,0 65 - -
05:00 7,7 1,7 19,3 Westen 41,8 1008,0 66 - -
05:05 7,6 1,9 25,7 Westen 38,6 1008,0 67 - -
05:10 7,6 1,9 20,9 ZW 35,4 1008,0 67 - -
05:15 7,6 1,9 14,5 Westen 43,4 1008,0 67 - -
05:20 7,6 1,9 29,0 ZZW 43,4 1008,0 67 - -
05:25 7,5 1,8 14,5 ZW 43,4 1008,0 67 - -
05:30 7,4 1,7 27,4 ZW 37,0 1008,4 67 - -
05:35 7,5 1,8 20,9 Westen 37,0 1008,4 67 - -
05:40 7,5 1,8 16,1 WZW 37,0 1008,4 67 - -
05:45 7,5 1,8 16,1 ZZW 43,4 1008,4 67 - -
05:50 7,5 1,8 22,5 ZZW 43,4 1008,4 67 - -
05:55 7,5 1,8 12,9 ZW 43,4 1008,4 67 - -
06:00 7,5 2,0 17,7 WZW 37,0 1008,4 68 - -
06:05 7,5 2,0 14,5 ZW 35,4 1008,4 68 - -
06:10 7,5 2,0 12,9 ZZW 35,4 1008,4 68 - -
06:15 7,4 1,9 14,5 Westen 35,4 1008,4 68 - -
06:20 7,4 2,1 16,1 ZW 35,4 1008,4 69 - -
06:25 7,4 2,1 11,3 ZZW 32,2 1008,4 69 - -
06:30 7,3 2,0 14,5 ZZW 33,8 1008,4 69 - -
06:35 7,3 2,2 24,1 ZW 35,4 1008,4 70 - -
06:40 7,3 2,2 9,7 ZZW 35,4 1008,4 70 - -
06:45 7,3 2,2 24,1 ZW 30,6 1008,4 70 - -
06:50 7,3 2,6 20,9 Westen 30,6 1008,7 72 - -
06:55 7,2 2,7 8,0 ZZW 32,2 1008,7 73 - -
07:00 7,1 2,8 14,5 Zuiden 32,2 1008,4 74 - -
07:05 6,9 2,6 14,5 Zuiden 32,2 1008,4 74 - -
07:10 6,8 2,7 12,9 WZW 30,6 1008,4 75 - -
07:15 6,8 2,7 24,1 ZZW 33,8 1008,4 75 - -
07:20 6,8 2,7 27,4 WNW 33,8 1008,4 75 - -
07:25 6,8 2,7 17,7 Zuiden 37,0 1008,4 75 - -
07:30 6,8 2,7 9,7 ZZW 37,0 1008,7 75 - -
07:35 6,8 2,7 19,3 ZZW 37,0 1008,4 75 - -
07:40 6,8 2,9 16,1 ZW 37,0 1008,7 76 - -
07:45 6,8 2,9 16,1 ZZW 37,0 1008,4 76 - -
07:50 6,9 3,1 20,9 ZW 43,4 1008,4 77 - -
07:55 6,9 3,1 25,7 ZW 43,4 1008,4 77 - 5
08:00 6,9 3,3 16,1 Zuiden 38,6 1008,4 78 - 7
08:05 6,9 3,3 35,4 ZW 41,8 1008,7 78 - 9
08:10 7,0 3,4 9,7 WZW 41,8 1008,7 78 - 11
08:15 7,1 3,5 16,1 WZW 41,8 1008,7 78 - 12
08:20 7,1 3,5 24,1 ZZW 37,0 1008,7 78 - 12
08:25 7,1 3,5 17,7 WZW 38,6 1008,7 78 - 16
08:30 7,1 3,5 16,1 Zuiden 38,6 1008,7 78 - 28
08:35 7,1 3,5 22,5 ZW 38,6 1009,0 78 - 35
08:40 7,2 3,4 14,5 WZW 45,1 1009,0 77 - 40
08:45 7,2 3,4 12,9 WZW 45,1 1009,0 77 - 46
08:50 7,3 3,5 16,1 ZW 45,1 1008,7 77 - 51
08:55 7,3 3,5 12,9 Zuiden 40,2 1009,0 77 - 53
09:00 7,3 3,5 22,5 ZZW 40,2 1009,0 77 - 58
09:05 7,4 3,6 24,1 ZZW 43,4 1009,0 77 - 72
09:10 7,4 3,6 32,2 Zuiden 43,4 1008,7 77 - 97
09:15 7,6 3,8 35,4 ZW 40,2 1008,7 77 - 105
09:20 7,7 3,7 16,1 OZO 43,4 1009,0 76 - 144
09:25 7,8 3,8 20,9 ZW 43,4 1009,0 76 - 156
09:30 7,9 3,9 24,1 WZW 43,4 1009,0 76 - 148
09:35 7,9 3,7 22,5 WZW 43,4 1009,4 75 - 104
09:40 8,0 3,8 22,5 ZZW 43,4 1009,0 75 - 176
09:45 8,1 3,9 19,3 ZZW 49,9 1009,0 75 - 223
09:50 8,3 4,1 16,1 ZW 49,9 1009,0 75 - 285
09:55 8,4 4,0 19,3 WNW 49,9 1009,0 74 - 318
10:00 8,5 3,9 16,1 WZW 41,8 1009,0 73 - 181
10:05 8,4 3,8 12,9 ZW 49,9 1009,0 73 - 151
10:10 8,4 4,0 16,1 WZW 49,9 1009,0 74 - 46
10:15 8,3 3,9 22,5 ZZW 49,9 1009,4 74 - 107
10:20 8,3 3,9 19,3 ZW 43,4 1009,4 74 - 134
10:25 8,4 4,0 25,7 ZZW 41,8 1009,4 74 - 158
10:30 8,5 4,1 20,9 ZW 41,8 1009,4 74 - 123
10:35 8,5 3,9 24,1 Westen 40,2 1009,4 73 - 125
10:40 8,5 3,9 29,0 Zuiden 40,2 1009,4 73 - 137
10:45 8,6 4,0 20,9 ZZW 40,2 1009,4 73 - 241
10:50 8,8 4,2 16,1 ZW 40,2 1009,4 73 - 237
10:55 8,9 4,1 17,7 ZW 40,2 1009,4 72 - 197
11:00 9,1 4,3 19,3 WNW 43,4 1009,4 72 - 227
11:05 9,2 4,4 29,0 ZW 43,4 1009,4 72 - 271
11:10 9,2 4,2 20,9 ZZW 43,4 1009,4 71 - 230
11:15 9,4 4,2 33,8 ZW 43,4 1009,4 70 - 292
11:20 9,6 4,4 33,8 ZZW 41,8 1009,0 70 - 362
11:25 9,6 4,2 30,6 ZZW 41,8 1009,4 69 - 185
11:30 9,4 4,0 20,9 ZZW 40,2 1009,0 69 - 207
11:35 9,4 4,2 24,1 Zuiden 40,2 1009,0 70 - 216
11:40 9,4 4,2 20,9 ZZW 40,2 1009,0 70 - 364
11:45 9,6 4,4 24,1 Westen 53,1 1009,0 70 - 432
11:50 9,5 4,3 14,5 WZW 53,1 1009,4 70 - 376
11:55 9,6 4,2 24,1 ZW 53,1 1009,4 69 - 214
12:00 9,6 4,2 22,5 ZZW 41,8 1009,4 69 - 213
12:05 9,4 4,0 16,1 WZW 48,3 1009,4 69 - 223
12:10 9,6 4,4 12,9 WNW 48,3 1009,4 70 - 176
12:15 9,5 4,3 19,3 WZW 45,1 1009,4 70 - 123
12:20 9,5 4,3 14,5 Zuiden 45,1 1009,4 70 - 200
12:25 9,6 4,4 22,5 Westen 38,6 1009,4 70 - 130
12:30 9,6 4,4 14,5 ZZW 38,6 1009,0 70 - 169
12:35 9,6 4,6 9,7 NO 45,1 1009,0 71 - 167
12:40 9,6 4,4 27,4 WZW 45,1 1009,0 70 - 146
12:45 9,6 4,4 16,1 Westen 40,2 1009,0 70 - 165
12:50 9,6 4,6 29,0 Westen 41,8 1009,7 71 - 44
12:55 7,2 2,9 27,4 Westen 41,8 1010,0 74 - 18
13:00 5,8 2,8 22,5 WZW 53,1 1010,0 81 0,30 46
13:05 5,6 2,9 12,9 WZW 53,1 1010,0 83 1,30 51
13:10 5,5 3,0 27,4 Westen 51,5 1010,0 84 1,50 14
13:15 5,4 3,1 22,5 ZW 54,7 1009,7 85 2,00 30
13:20 5,5 3,2 22,5 WZW 54,7 1009,4 85 2,80 54
13:25 5,9 3,2 19,3 ZW 54,7 1009,4 83 2,80 44
13:30 6,2 3,0 29,0 WZW 51,5 1009,0 80 3,00 128
13:35 6,5 3,5 29,0 ZW 51,5 1009,0 81 3,30 313
13:40 6,7 3,7 24,1 WZW 51,5 1009,0 81 3,30 213
13:45 6,9 3,9 16,1 ZW 45,1 1009,0 81 3,30 364
13:50 7,2 4,0 27,4 WZW 43,4 1009,0 80 3,30 190
13:55 7,3 4,1 12,9 WZW 35,4 1009,0 80 3,30 171
14:00 7,3 3,9 11,3 ZZW 35,4 1009,0 79 2,30 162
14:05 7,4 3,8 19,3 ZZW 35,4 1009,0 78 2,00 197
14:10 7,6 4,0 11,3 ZZW 37,0 1009,0 78 1,50 176
14:15 7,7 3,9 19,3 ZZW 40,2 1009,0 77 1,00 230
14:20 7,9 4,1 9,7 ZW 40,2 1009,0 77 0,50 279
14:25 8,2 4,0 20,9 ZW 35,4 1009,0 75 0,30 311
14:30 8,4 4,0 17,7 ZZW 38,6 1009,0 74 - 213
14:35 8,6 4,2 27,4 WZW 38,6 1009,0 74 - 396
14:40 8,8 4,4 27,4 ZZW 38,6 1009,0 74 - 367
14:45 8,8 4,2 27,4 ZW 35,4 1009,0 73 - 359
14:50 8,9 4,3 17,7 ZW 35,4 1009,0 73 - 350
14:55 8,9 4,3 27,4 Westen 37,0 1009,0 73 - 350
15:00 9,0 4,4 22,5 ZZW 40,2 1009,4 73 - 355
15:05 9,1 4,5 19,3 Westen 40,2 1009,4 73 - 204
15:10 9,2 4,4 24,1 Westen 40,2 1009,0 72 - 301
15:15 9,3 4,5 32,2 WZW 40,2 1009,0 72 - 315

Download your copy of this data-set  here

Our weather-data as stored at Weather Underground. Script ontwikkeld door Jim McMurry. Aangepast voor de template door Leuven-Template.eu

U vindt ons ook hier:

Het Weer Aktueel

UK Metoffice

European Weather Network

Weather Underground

Benelux Weer Netwerk

AWEKAS